Flag for U.S.A. Weather past 2 weeks in Springfield, Illinois, U.S.A.

Now
86 °F

Passing clouds.


Feels Like: 89 °F
Forecast: 63 / 89 °F
Wind: 6 mph from Northwest

Location: Capital Airport

Current Time: Jul 31, 2015 at 7:12:37 PM

Latest Report: Jul 31, 2015 at 5:52 PM


Visibility: 10 mi

Pressure: 30.00 "Hg

Humidity: 55%

Dew point: 68 °F

Location of SpringfieldLocation

Historic Weather in Springfield — Graph

°F

Springfield temperature yesterday

Maximum temperature yesterday: 88 °F (at 2:52 PM)
Minimum temperature yesterday: 63 °F (at 2:52 AM)
Average temperature yesterday: 75 °F

Past Weeks' High & Low Weather Summary

 TemperatureHumidityPressure
High95 °F (Jul 28, 2:52 PM)94% (Jul 19, 8:52 AM)30.14 "Hg (Jul 19, 8:52 AM)
Low62 °F (Jul 22, 2:56 AM)43% (Jul 29, 6:52 PM)29.76 "Hg (Jul 20, 7:52 PM)
Average79 °F75%29.94 "Hg
* Reported Jul 16 5:52 PM — Jul 31 5:52 PM, Springfield, Weather by CustomWeather, © 2015

Note: Actual official high and low records may vary slightly from our data, if they occured in-between our weather recording intervals... More about our weather records

Advertising

Springfield weather history for previous 24 hours

 ConditionsComfort  
Time TempWeatherWind HumidityBarometerVisibility
5:52 PM
Fri, Jul 31
86 °FPassing clouds.6 mph55%30.00 "Hg10 mi
4:52 PM89 °FPassing clouds.7 mph50%30.01 "Hg10 mi
3:52 PM90 °FSunny.12 mph47%30.01 "Hg10 mi
2:52 PM89 °FSunny.10 mph52%30.03 "Hg10 mi
1:52 PM89 °FSunny.14 mph52%30.05 "Hg10 mi
12:52 PM88 °FSunny.13 mph55%30.06 "Hg10 mi
11:52 AM86 °FSunny.10 mph55%30.07 "Hg10 mi
10:52 AM85 °FSunny.13 mph57%30.09 "Hg10 mi
9:52 AM82 °FSunny.10 mph65%30.09 "Hg10 mi
8:52 AM78 °FSunny.6 mph71%30.10 "Hg10 mi
7:52 AM74 °FSunny.5 mph79%30.10 "Hg10 mi
6:52 AM67 °FClear.3 mph90%30.10 "Hg10 mi
5:52 AM66 °FClear.3 mph90%30.09 "Hg10 mi
4:52 AM64 °FClear.3 mph94%30.08 "Hg10 mi
3:52 AM65 °FClear.5 mph94%30.09 "Hg10 mi
2:52 AM67 °FClear.3 mph90%30.09 "Hg10 mi
1:52 AM68 °FClear.5 mph87%30.09 "Hg10 mi
12:52 AM69 °FClear.5 mph87%30.09 "Hg10 mi
11:52 PM
Thu, Jul 30
69 °FClear.7 mph87%30.08 "Hg10 mi
10:52 PM71 °FClear.6 mph84%30.08 "Hg10 mi
9:52 PM73 °FClear.6 mph81%30.08 "Hg10 mi
8:52 PM74 °FSunny.7 mph82%30.06 "Hg10 mi
7:52 PM78 °FSunny.6 mph76%30.06 "Hg10 mi
Weather by CustomWeather, © 2015

See weather overviewHow to use our weather pages